TimeCST,TemperatureF,Dew PointF,Humidity,Sea Level PressureIn,VisibilityMPH,Wind Direction,Wind SpeedMPH,Gust SpeedMPH,PrecipitationIn,Events,Conditions,WindDirDegrees,DateUTC
12:53 AM,39.9,37.9,93,30.08,10.0,NE,10.4,-,0.05,Rain,Light Rain,50,2013-01-15 06:53:00
1:00 AM,39.2,37.4,93,30.08,10.0,NE,5.8,-,0.00,,Overcast,40,2013-01-15 07:00:00
1:24 AM,39.2,39.2,100,30.09,10.0,Variable,3.5,-,0.00,Rain,Light Rain,0,2013-01-15 07:24:00
1:38 AM,39.2,39.2,100,30.08,10.0,NE,5.8,-,0.00,,Overcast,40,2013-01-15 07:38:00
1:53 AM,39.9,37.9,93,30.08,10.0,NE,6.9,-,0.00,Rain,Light Rain,40,2013-01-15 07:53:00
2:07 AM,39.2,39.2,100,30.07,10.0,NNE,4.6,-,0.00,,Overcast,20,2013-01-15 08:07:00
2:24 AM,39.2,39.2,100,30.07,10.0,NNE,5.8,-,N/A,,Overcast,20,2013-01-15 08:24:00
2:53 AM,39.9,39.0,97,30.07,10.0,NNE,4.6,-,0.00,,Overcast,30,2013-01-15 08:53:00
3:53 AM,41.0,39.9,96,30.05,10.0,NE,8.1,-,0.04,,Overcast,40,2013-01-15 09:53:00
4:53 AM,41.0,39.2,93,30.04,5.0,NE,4.6,-,N/A,Rain,Light Rain,40,2013-01-15 10:53:00
5:53 AM,41.0,39.9,96,30.04,10.0,Calm,Calm,-,0.04,,Overcast,0,2013-01-15 11:53:00
6:53 AM,41.0,39.9,96,30.05,7.0,NNE,4.6,-,0.02,Rain,Light Rain,30,2013-01-15 12:53:00
7:22 AM,41.0,41.0,100,30.06,1.0,NNE,4.6,-,0.21,Rain,Heavy Rain,20,2013-01-15 13:22:00
7:29 AM,41.0,41.0,100,30.06,2.0,NE,3.5,-,0.34,Rain,Heavy Rain,50,2013-01-15 13:29:00
7:36 AM,41.0,39.2,93,30.06,4.0,Calm,Calm,-,0.35,Rain,Rain,0,2013-01-15 13:36:00
7:53 AM,41.0,39.9,96,30.06,4.0,NNE,4.6,-,0.37,Rain,Light Rain,20,2013-01-15 13:53:00
8:11 AM,41.0,39.2,93,30.07,1.8,NW,3.5,-,0.02,Rain,Heavy Rain,320,2013-01-15 14:11:00
8:21 AM,41.0,39.2,93,30.06,4.0,NE,5.8,-,0.08,Rain,Light Rain,40,2013-01-15 14:21:00
8:28 AM,41.0,39.2,93,30.07,4.0,Calm,Calm,-,0.10,Rain,Rain,0,2013-01-15 14:28:00
8:53 AM,42.1,41.0,96,30.09,4.0,Variable,3.5,-,0.11,Rain,Light Rain,0,2013-01-15 14:53:00
9:16 AM,42.8,39.2,87,30.08,1.8,NE,4.6,-,0.00,Rain,Light Rain,50,2013-01-15 15:16:00
9:30 AM,42.8,41.0,93,30.08,3.0,NNE,3.5,-,0.08,Rain,Light Rain,30,2013-01-15 15:30:00
9:53 AM,42.1,41.0,96,30.06,3.0,NE,8.1,-,0.10,Rain,Rain,50,2013-01-15 15:53:00
10:20 AM,42.8,41.0,93,30.06,10.0,North,3.5,-,0.00,,Overcast,360,2013-01-15 16:20:00
10:53 AM,42.1,41.0,96,30.06,1.5,Calm,Calm,-,0.00,,Overcast,0,2013-01-15 16:53:00
11:00 AM,42.8,41.0,93,30.06,1.5,North,4.6,-,N/A,,Overcast,360,2013-01-15 17:00:00
11:53 AM,43.0,42.1,97,30.03,1.0,Variable,3.5,-,0.00,Rain,Light Rain,0,2013-01-15 17:53:00
12:53 PM,43.0,43.0,100,30.00,1.0,North,5.8,-,0.00,,Overcast,350,2013-01-15 18:53:00
1:53 PM,43.0,42.1,97,29.99,1.0,NNW,4.6,-,N/A,,Overcast,340,2013-01-15 19:53:00
2:53 PM,42.1,41.0,96,30.00,1.0,North,8.1,-,N/A,,Overcast,350,2013-01-15 20:53:00
3:11 PM,42.8,41.0,93,29.99,1.5,North,5.8,-,N/A,,Overcast,350,2013-01-15 21:11:00
3:53 PM,42.1,41.0,96,29.99,1.5,North,6.9,-,N/A,,Overcast,10,2013-01-15 21:53:00
4:53 PM,41.0,41.0,100,30.01,1.5,Variable,3.5,-,N/A,,Overcast,0,2013-01-15 22:53:00
5:08 PM,41.0,39.2,93,30.01,2.5,North,4.6,-,N/A,,Overcast,10,2013-01-15 23:08:00
5:15 PM,41.0,39.2,93,30.01,3.0,North,3.5,-,N/A,,Overcast,360,2013-01-15 23:15:00
5:53 PM,41.0,39.9,96,30.01,7.0,North,4.6,-,N/A,,Overcast,10,2013-01-15 23:53:00
6:53 PM,41.0,39.9,96,30.02,8.0,North,4.6,-,0.00,,Overcast,350,2013-01-16 00:53:00
7:53 PM,39.9,39.0,97,30.03,4.0,NW,6.9,-,0.02,Rain,Light Rain,320,2013-01-16 01:53:00
8:35 PM,39.2,39.2,100,30.03,10.0,NNW,4.6,-,0.01,,Overcast,340,2013-01-16 02:35:00
8:44 PM,39.2,39.2,100,30.02,10.0,NNW,6.9,-,0.01,,Overcast,340,2013-01-16 02:44:00
8:53 PM,39.9,37.9,93,30.03,10.0,NNW,5.8,-,0.01,,Overcast,340,2013-01-16 02:53:00
9:53 PM,39.0,37.9,96,30.03,10.0,NNW,4.6,-,N/A,,Overcast,330,2013-01-16 03:53:00
10:53 PM,37.9,37.0,97,30.03,10.0,NNW,6.9,-,N/A,,Overcast,340,2013-01-16 04:53:00
11:53 PM,37.0,35.1,93,30.05,4.0,NNW,11.5,-,N/A,,Overcast,340,2013-01-16 05:53:00